Regional Weather Roundup
Issued by NWS State College, PA

Home | Current Version | Previous Version | Text Only | Print | Product List | Glossary Off
Versions: 1 2 3 4 5 6 7 8 9 10 11 12 13 14 15 16 17 18 19 20 21 22 23 24 25 26 27 28 29 30 31 32 33 34 35 36 37 38 39 40 41 42 43 44 45 46 47 48 49 50

000
ASUS41 KCTP 292103
RWRCTP

REGIONAL WEATHER ROUNDUP
NATIONAL WEATHER SERVICE STATE COLLEGE PA
500 PM EDT SUN MAR 29 2015

Note: "fair" indicates few or no clouds below 12,000 feet with no
significant weather and/or obstructions to visibility.

* = STATION THAT DOES NOT REPORT PRECIPITATION /E.G. RAIN...SNOW...ETC/
    THUNDER OR FOG.

PAZ002>004-007>009-013>016-020>023-029>032-292200-
WESTERN PENNSYLVANIA

CITY           SKY/WX    TMP DP  RH WIND       PRES   REMARKS
ERIE           FAIR      44  12  27 S14G29    30.01F
MEADVILLE      MOSUNNY   41  13  31 S9G22     30.03F
FRANKLIN*      MOSUNNY   41  12  30 S17G23    30.08F
NEW CASTLE     FAIR      43  10  26 S10G16    30.09F
BEAVER COUNTY  SUNNY     45  10  24 S14       30.10F
BUTLER*        MOSUNNY   43  10  26 S12       30.12F
PITTSBURGH INT PTSUNNY   44   6  21 S15G25    30.11F
PITTSBURGH     SUNNY     43   5  20 S13G24    30.11F
INDIANA*       SUNNY     43  12  28 S15       30.15F
LATROBE        NOT AVBL
WASHINGTON CO* MOSUNNY   45   9  23 S10G16    30.14F
$$

PAZ004>006-010>012-017>019-024>028-033>037-041-042-045-046-049>053-292200-
CENTRAL PENNSYLVANIA

CITY           SKY/WX    TMP DP  RH WIND       PRES   REMARKS
BRADFORD       SUNNY     38   8  29 SW10      30.03F
DUBOIS         SUNNY     41   7  24 SW9G17    30.07F
CLEARFIELD     SUNNY     41   6  23 SW10      30.11F
JOHNSTOWN      SUNNY     41  11  29 W8        30.09F
ALTOONA        SUNNY     44   8  23 SW9       30.14F
STATE COLLEGE  SUNNY     45   5  19 SW9       30.14F
WILLIAMSPORT   SUNNY     45   5  19 CALM      30.16F
SELINSGROVE    SUNNY     45  11  25 SW8G17    30.19F
FT INDIANTOWN  SUNNY     45   3  17 W8G17     30.20S
CAPITAL CITY   SUNNY     45   4  18 W9        30.21F
HARRISBURG     MOSUNNY   45   8  22 W7G18     30.21F
YORK           SUNNY     44   8  23 W7G17     30.22F
$$

PAZ038>040-043-044-047-048-054-055-060>062-067>071-292200-
EASTERN PENNSYLVANIA

CITY           SKY/WX    TMP DP  RH WIND       PRES   REMARKS
SCRANTON       SUNNY     43   6  21 SW15      30.13F
MOUNT POCONO   SUNNY     37   2  22 W10       30.09F
ALLENTOWN      SUNNY     45   6  20 W9        30.18F
QUAKERTOWN*    CLEAR     43   7  22 W5        30.19S
READING        SUNNY     44   6  21 W9        30.19F
LANCASTER      SUNNY     43   7  22 W12       30.21F
COATESVILLE    CLEAR     39  10  30 W10       30.21F
POTTSTOWN      SUNNY     43   6  21 W6        30.22F
BLUE BELL      SUNNY     45  12  26 W5        30.20F
DOYLESTOWN     SUNNY     42   6  22 CALM      30.18F
WILLOW GROVE   NOT AVBL
NORTH PHILA    SUNNY     45   7  21 W9        30.22F
PHILADELPHIA   SUNNY     45   5  19 SW9       30.22F
$$


USA.gov is the U.S. government's official web portal to all federal, state and local government web resources and services.